SDM596Z UHMM-UNKL

Flight info

Callsign SDM596Z
Flight time N/A
Altitude 38000
Route KUKIR5D KUKIR A949 INLIR G370 RITIS/K0839F360 G370 ABGUR W289 GISUN W39 ERBOG W105 LANAP W339 BARIK W261 OKRIM OKRIM2S
Aircraft A320/M-SDE3FGHIRWY/LB1

Departure

Time 2026-05-08 05:37
Airport Sokol Airport (UHMM)

Arrival

Time N/A
Airport Krasnoyarsk International Airport (UNKL)
Time Latitude Longitude Altitude Speed Heading
2026-05-08 05:19 59.91234 150.73477 592 ft 0 kts 111°
2026-05-08 05:30 59.91233 150.73480 592 ft 1 kts 111°
2026-05-08 05:31 59.91227 150.73514 592 ft 3 kts 103°
2026-05-08 05:31 59.91233 150.73578 592 ft 6 kts 57°
2026-05-08 05:31 59.91279 150.73601 592 ft 5 kts 321°
2026-05-08 05:31 59.91283 150.73537 592 ft 5 kts 271°
2026-05-08 05:32 59.91283 150.73438 592 ft 9 kts 269°
2026-05-08 05:32 59.91239 150.73305 592 ft 14 kts 228°
2026-05-08 05:32 59.91175 150.73148 592 ft 14 kts 233°
2026-05-08 05:32 59.91117 150.72996 592 ft 13 kts 232°
2026-05-08 05:33 59.91067 150.73021 592 ft 9 kts 100°
2026-05-08 05:33 59.91067 150.73193 592 ft 16 kts 91°
2026-05-08 05:33 59.91061 150.73476 592 ft 24 kts 93°
2026-05-08 05:33 59.91050 150.73865 592 ft 32 kts 94°
2026-05-08 05:34 59.91033 150.74338 592 ft 36 kts 92°
2026-05-08 05:34 59.91024 150.74817 592 ft 16 kts 90°
2026-05-08 05:34 59.91026 150.74875 592 ft 6 kts 84°
2026-05-08 05:34 59.91047 150.75015 592 ft 10 kts 59°
2026-05-08 05:35 59.91036 150.75064 592 ft 5 kts 185°
2026-05-08 05:35 59.91013 150.75000 592 ft 7 kts 276°
2026-05-08 05:35 59.91018 150.74927 592 ft 0 kts 276°
2026-05-08 05:36 59.91024 150.74805 592 ft 31 kts 275°
2026-05-08 05:36 59.91047 150.73881 592 ft 101 kts 275°
2026-05-08 05:36 59.91097 150.72046 593 ft 159 kts 271°
2026-05-08 05:36 59.91135 150.69717 1024 ft 170 kts 274°
2026-05-08 05:37 59.91222 150.67452 1720 ft 166 kts 276°
2026-05-08 05:37 59.91305 150.65060 2104 ft 182 kts 273°
2026-05-08 05:37 59.91367 150.62463 2468 ft 195 kts 273°
2026-05-08 05:37 59.91433 150.59644 2770 ft 212 kts 273°
2026-05-08 05:38 59.91505 150.56604 3156 ft 228 kts 274°
2026-05-08 05:38 59.91583 150.53349 3606 ft 246 kts 274°
2026-05-08 05:38 59.91668 150.49808 4087 ft 263 kts 274°
2026-05-08 05:38 59.91842 150.46166 4769 ft 269 kts 284°
2026-05-08 05:39 59.92259 150.42537 5544 ft 272 kts 285°
2026-05-08 05:39 59.92665 150.39121 6239 ft 271 kts 285°
2026-05-08 05:39 59.92726 150.38603 6329 ft 271 kts 285°
2026-05-08 05:39 59.93160 150.34935 6949 ft 272 kts 284°
2026-05-08 05:40 59.93583 150.31342 7823 ft 262 kts 285°
2026-05-08 05:40 59.93983 150.27937 8736 ft 251 kts 285°
2026-05-08 05:40 59.94376 150.24582 9444 ft 249 kts 285°
2026-05-08 05:40 59.94781 150.21126 9784 ft 262 kts 284°
2026-05-08 05:41 59.95202 150.17511 10093 ft 276 kts 284°
2026-05-08 05:41 59.95644 150.13686 10359 ft 291 kts 284°
2026-05-08 05:41 59.96111 150.09642 10604 ft 305 kts 284°
2026-05-08 05:41 59.96592 150.05460 10825 ft 319 kts 284°
2026-05-08 05:42 59.97094 150.01088 11035 ft 331 kts 284°
2026-05-08 05:42 59.97622 149.96474 11235 ft 344 kts 284°
2026-05-08 05:42 59.98158 149.91769 11421 ft 355 kts 283°
2026-05-08 05:42 59.98708 149.86928 11595 ft 366 kts 283°
2026-05-08 05:43 59.99276 149.81915 11760 ft 375 kts 283°
2026-05-08 05:43 59.99856 149.76767 11970 ft 383 kts 283°
2026-05-08 05:43 60.00445 149.71527 12309 ft 386 kts 283°
2026-05-08 05:43 60.01030 149.66296 12677 ft 388 kts 283°
2026-05-08 05:44 60.01616 149.61047 13047 ft 391 kts 283°
2026-05-08 05:44 60.02209 149.55713 13411 ft 390 kts 283°
2026-05-08 05:44 60.02746 149.50369 13625 ft 392 kts 281°
2026-05-08 05:44 60.03233 149.45039 13897 ft 395 kts 281°
2026-05-08 05:45 60.03726 149.39642 14193 ft 397 kts 281°
2026-05-08 05:45 60.04224 149.34163 14492 ft 399 kts 281°
2026-05-08 05:45 60.04719 149.28703 14781 ft 400 kts 281°
2026-05-08 05:45 60.05210 149.23253 15059 ft 402 kts 281°
2026-05-08 05:46 60.05710 149.17683 15346 ft 404 kts 281°
2026-05-08 05:46 60.06205 149.12140 15623 ft 405 kts 280°
2026-05-08 05:46 60.06694 149.06641 15888 ft 407 kts 281°
2026-05-08 05:46 60.07191 149.01053 16146 ft 409 kts 281°
2026-05-08 05:47 60.07689 148.95428 16412 ft 410 kts 281°
2026-05-08 05:47 60.08186 148.89798 16674 ft 411 kts 281°
2026-05-08 05:47 60.08677 148.84186 16921 ft 412 kts 281°
2026-05-08 05:47 60.09174 148.78490 17165 ft 414 kts 281°
2026-05-08 05:48 60.09666 148.72810 17405 ft 415 kts 281°
2026-05-08 05:48 60.10153 148.67160 17637 ft 417 kts 281°
2026-05-08 05:48 60.10645 148.61433 17869 ft 418 kts 281°
2026-05-08 05:48 60.11133 148.55705 18089 ft 420 kts 281°
2026-05-08 05:49 60.11624 148.49916 18312 ft 421 kts 281°
2026-05-08 05:49 60.12111 148.44159 18525 ft 422 kts 281°
2026-05-08 05:49 60.12602 148.38304 18738 ft 424 kts 281°
2026-05-08 05:49 60.13085 148.32518 18938 ft 425 kts 280°
2026-05-08 05:50 60.13569 148.26683 19139 ft 426 kts 279°
2026-05-08 05:50 60.14053 148.20818 19353 ft 427 kts 280°
2026-05-08 05:50 60.14540 148.14883 19543 ft 429 kts 279°
2026-05-08 05:50 60.15019 148.09021 19744 ft 430 kts 280°
2026-05-08 05:51 60.15500 148.03088 19927 ft 431 kts 280°
2026-05-08 05:51 60.15979 147.97148 20119 ft 432 kts 279°
2026-05-08 05:51 60.16455 147.91219 20303 ft 434 kts 279°
2026-05-08 05:51 60.16933 147.85216 20476 ft 435 kts 279°
2026-05-08 05:52 60.17408 147.79222 20661 ft 436 kts 279°
2026-05-08 05:52 60.17880 147.73239 20834 ft 437 kts 279°
2026-05-08 05:52 60.18357 147.67142 20998 ft 438 kts 279°
2026-05-08 05:52 60.18827 147.61102 21176 ft 439 kts 279°
2026-05-08 05:53 60.19293 147.55081 21334 ft 441 kts 279°
2026-05-08 05:53 60.19759 147.49014 21499 ft 441 kts 279°
2026-05-08 05:53 60.20227 147.42894 21656 ft 443 kts 279°
2026-05-08 05:53 60.20688 147.36813 21818 ft 443 kts 279°
2026-05-08 05:54 60.21153 147.30658 21965 ft 445 kts 279°
2026-05-08 05:54 60.21612 147.24530 22117 ft 446 kts 279°
2026-05-08 05:54 60.22073 147.18330 22257 ft 447 kts 279°
2026-05-08 05:54 60.22525 147.12228 22403 ft 448 kts 279°
2026-05-08 05:55 60.22982 147.06015 22535 ft 449 kts 279°
2026-05-08 05:55 60.23434 146.99808 22651 ft 450 kts 279°
2026-05-08 05:55 60.23887 146.93568 22763 ft 452 kts 279°
2026-05-08 05:55 60.24341 146.87257 22883 ft 453 kts 279°
2026-05-08 05:56 60.24789 146.81003 23021 ft 454 kts 279°
2026-05-08 05:56 60.25232 146.74762 23146 ft 455 kts 279°
2026-05-08 05:56 60.25680 146.68411 23272 ft 456 kts 279°
2026-05-08 05:56 60.26120 146.62131 23387 ft 456 kts 279°
2026-05-08 05:57 60.26562 146.55782 23500 ft 457 kts 279°
2026-05-08 05:57 60.26998 146.49458 23608 ft 458 kts 279°
2026-05-08 05:57 60.27435 146.43097 23728 ft 459 kts 279°
2026-05-08 05:57 60.27868 146.36732 23848 ft 459 kts 279°
2026-05-08 05:58 60.28296 146.30405 24028 ft 458 kts 278°
2026-05-08 05:58 60.28726 146.23999 24241 ft 457 kts 278°
2026-05-08 05:58 60.29145 146.17705 24417 ft 456 kts 278°
2026-05-08 05:58 60.29560 146.11430 24583 ft 456 kts 278°
2026-05-08 05:59 60.29974 146.05116 24749 ft 455 kts 278°
2026-05-08 05:59 60.30392 145.98767 24927 ft 454 kts 279°
2026-05-08 05:59 60.31031 145.92552 25083 ft 454 kts 286°
2026-05-08 05:59 60.32016 145.86589 25244 ft 453 kts 290°
2026-05-08 06:00 60.33085 145.80580 25407 ft 453 kts 290°
2026-05-08 06:00 60.34146 145.74588 25589 ft 452 kts 290°
2026-05-08 06:00 60.35200 145.68613 25757 ft 452 kts 290°
2026-05-08 06:00 60.36234 145.62729 25929 ft 451 kts 290°
2026-05-08 06:01 60.37284 145.56731 26103 ft 451 kts 290°
2026-05-08 06:01 60.38325 145.50774 26271 ft 450 kts 290°
2026-05-08 06:01 60.39362 145.44815 26431 ft 450 kts 290°
2026-05-08 06:01 60.40404 145.38811 26593 ft 450 kts 290°
2026-05-08 06:02 60.41430 145.32875 26764 ft 450 kts 289°
2026-05-08 06:02 60.42452 145.26947 26947 ft 449 kts 289°
2026-05-08 06:02 60.43478 145.20982 27115 ft 449 kts 289°
2026-05-08 06:02 60.44498 145.15027 27271 ft 449 kts 289°
2026-05-08 06:03 60.45509 145.09102 27450 ft 448 kts 289°
2026-05-08 06:03 60.46522 145.03155 27631 ft 447 kts 289°
2026-05-08 06:03 60.47532 144.97203 27814 ft 447 kts 289°
2026-05-08 06:03 60.48545 144.91209 27983 ft 446 kts 289°
2026-05-08 06:04 60.49538 144.85318 28133 ft 446 kts 289°
2026-05-08 06:04 60.50539 144.79361 28290 ft 446 kts 289°
2026-05-08 06:04 60.51534 144.73419 28451 ft 446 kts 289°
2026-05-08 06:04 60.52530 144.67452 28607 ft 445 kts 289°
2026-05-08 06:05 60.53509 144.61563 28772 ft 445 kts 289°
2026-05-08 06:05 60.54505 144.55562 28941 ft 444 kts 289°
2026-05-08 06:05 60.55481 144.49658 29084 ft 444 kts 289°
2026-05-08 06:05 60.56461 144.43710 29226 ft 444 kts 289°
2026-05-08 06:06 60.57440 144.37743 29382 ft 444 kts 289°
2026-05-08 06:06 60.58413 144.31799 29543 ft 444 kts 288°
2026-05-08 06:06 60.59379 144.25874 29696 ft 443 kts 288°
2026-05-08 06:06 60.60347 144.19939 29851 ft 443 kts 289°
2026-05-08 06:07 60.61312 144.14021 30011 ft 442 kts 289°
2026-05-08 06:07 60.62279 144.08075 30153 ft 442 kts 289°
2026-05-08 06:07 60.63237 144.02156 30305 ft 442 kts 289°
2026-05-08 06:07 60.64194 143.96227 30458 ft 442 kts 288°
2026-05-08 06:08 60.65154 143.90260 30603 ft 441 kts 288°
2026-05-08 06:08 60.66096 143.84381 30739 ft 441 kts 289°
2026-05-08 06:08 60.67049 143.78412 30887 ft 441 kts 288°
2026-05-08 06:08 60.67991 143.72494 31023 ft 441 kts 288°
2026-05-08 06:09 60.68934 143.66553 31168 ft 440 kts 288°
2026-05-08 06:09 60.69867 143.60649 31303 ft 440 kts 289°
2026-05-08 06:09 60.70808 143.54683 31433 ft 440 kts 288°
2026-05-08 06:09 60.71740 143.48747 31557 ft 440 kts 289°
2026-05-08 06:10 60.72668 143.42815 31682 ft 439 kts 289°
2026-05-08 06:10 60.73595 143.36876 31802 ft 439 kts 289°
2026-05-08 06:10 60.74514 143.30960 31859 ft 440 kts 288°
2026-05-08 06:11 60.76358 143.19041 31860 ft 439 kts 288°
2026-05-08 06:11 60.78176 143.07204 31860 ft 439 kts 288°
2026-05-08 06:12 60.79982 142.95344 31860 ft 439 kts 288°
2026-05-08 06:12 60.81797 142.83347 31859 ft 439 kts 287°
2026-05-08 06:13 60.83588 142.71419 31860 ft 440 kts 287°
2026-05-08 06:13 60.85372 142.59457 31859 ft 440 kts 287°
2026-05-08 06:14 60.87150 142.47455 31860 ft 440 kts 287°
2026-05-08 06:14 60.88906 142.35513 31860 ft 439 kts 287°
2026-05-08 06:15 60.90663 142.23480 31860 ft 440 kts 287°
2026-05-08 06:15 60.92399 142.11507 31860 ft 440 kts 287°
2026-05-08 06:16 60.94129 141.99483 31860 ft 440 kts 287°
2026-05-08 06:16 60.95850 141.87431 31860 ft 439 kts 287°
2026-05-08 06:17 60.98413 141.69325 31860 ft 440 kts 287°
2026-05-08 06:17 61.00101 141.57292 31859 ft 440 kts 287°
2026-05-08 06:18 61.01785 141.45195 31860 ft 440 kts 287°
2026-05-08 06:18 61.03461 141.33064 31860 ft 439 kts 285°
2026-05-08 06:19 61.05113 141.21013 31860 ft 439 kts 285°
2026-05-08 06:19 61.06762 141.08894 31859 ft 440 kts 285°
2026-05-08 06:20 61.08413 140.96670 31860 ft 441 kts 285°
2026-05-08 06:20 61.10046 140.84483 31859 ft 443 kts 285°
2026-05-08 06:21 61.11679 140.72198 31860 ft 443 kts 285°
2026-05-08 06:21 61.13300 140.59918 31860 ft 443 kts 285°
2026-05-08 06:22 61.14898 140.47711 31859 ft 443 kts 285°
2026-05-08 06:22 61.16494 140.35432 31855 ft 443 kts 285°
2026-05-08 06:23 61.18081 140.23131 31829 ft 443 kts 285°
2026-05-08 06:23 61.19652 140.10855 31813 ft 443 kts 285°
2026-05-08 06:24 61.21216 139.98537 31817 ft 443 kts 285°
2026-05-08 06:24 61.22778 139.86131 31817 ft 443 kts 285°
2026-05-08 06:25 61.24319 139.73810 31816 ft 443 kts 285°
2026-05-08 06:25 61.25860 139.61395 31816 ft 443 kts 285°
2026-05-08 06:26 61.27381 139.49026 31816 ft 443 kts 285°
2026-05-08 06:26 61.28881 139.36725 31816 ft 443 kts 285°
2026-05-08 06:27 61.30387 139.24258 31816 ft 443 kts 284°
2026-05-08 06:27 61.31867 139.11917 31817 ft 443 kts 284°
2026-05-08 06:28 61.33344 138.99490 31817 ft 442 kts 284°
2026-05-08 06:28 61.34810 138.87050 31816 ft 442 kts 284°
2026-05-08 06:29 61.36264 138.74628 31816 ft 442 kts 284°
2026-05-08 06:29 61.37711 138.62195 31816 ft 442 kts 284°
2026-05-08 06:30 61.39164 138.49789 31816 ft 442 kts 284°
2026-05-08 06:30 61.40537 138.37366 31817 ft 442 kts 283°
2026-05-08 06:31 61.41893 138.24808 31816 ft 442 kts 283°
2026-05-08 06:31 61.43283 138.12349 31816 ft 442 kts 283°
2026-05-08 06:32 61.44669 137.99899 31816 ft 442 kts 283°
2026-05-08 06:32 61.46043 137.87424 31816 ft 442 kts 283°
2026-05-08 06:33 61.47412 137.74861 31817 ft 442 kts 283°
2026-05-08 06:33 61.48753 137.62421 31816 ft 442 kts 283°
2026-05-08 06:34 61.50093 137.49858 31816 ft 442 kts 283°
2026-05-08 06:34 61.51417 137.37323 31816 ft 442 kts 283°
2026-05-08 06:35 61.52725 137.24818 31816 ft 442 kts 282°
2026-05-08 06:35 61.54029 137.12260 31816 ft 442 kts 282°
2026-05-08 06:36 61.55323 136.99655 31816 ft 442 kts 282°
2026-05-08 06:36 61.56600 136.87077 31816 ft 441 kts 282°
2026-05-08 06:37 61.57861 136.74524 31816 ft 441 kts 282°
2026-05-08 06:37 61.59112 136.61954 31817 ft 441 kts 282°
2026-05-08 06:38 61.60355 136.49341 31816 ft 441 kts 282°
2026-05-08 06:38 61.61581 136.36755 31817 ft 441 kts 282°
2026-05-08 06:39 61.62795 136.24176 31816 ft 441 kts 281°
2026-05-08 06:39 61.64006 136.11507 31816 ft 441 kts 281°
2026-05-08 06:40 61.65200 135.98866 31816 ft 441 kts 281°
2026-05-08 06:40 61.66375 135.86282 31816 ft 441 kts 281°
2026-05-08 06:41 61.67546 135.73602 31816 ft 441 kts 281°
2026-05-08 06:41 61.68706 135.60902 31816 ft 441 kts 281°
2026-05-08 06:42 61.69844 135.48309 31816 ft 441 kts 281°
2026-05-08 06:42 61.70985 135.35544 31817 ft 442 kts 281°
2026-05-08 06:43 61.72104 135.22894 31816 ft 441 kts 281°
2026-05-08 06:43 61.73217 135.10233 31816 ft 441 kts 281°
2026-05-08 06:44 61.74347 134.97545 31816 ft 441 kts 281°
2026-05-08 06:44 61.75467 134.84786 31816 ft 441 kts 281°
2026-05-08 06:45 61.76564 134.72131 31816 ft 441 kts 281°
2026-05-08 06:45 61.77654 134.59410 31816 ft 441 kts 281°
2026-05-08 06:46 61.78734 134.46677 31816 ft 441 kts 281°
2026-05-08 06:46 61.79805 134.33896 31816 ft 441 kts 279°
2026-05-08 06:47 61.80857 134.21191 31816 ft 441 kts 279°
2026-05-08 06:47 61.81903 134.08406 31816 ft 441 kts 279°
2026-05-08 06:48 61.82932 133.95686 31816 ft 441 kts 279°
2026-05-08 06:48 61.83957 133.82846 31816 ft 441 kts 279°
2026-05-08 06:49 61.84961 133.70119 31816 ft 441 kts 279°
2026-05-08 06:49 61.85947 133.57268 31816 ft 441 kts 279°
2026-05-08 06:50 61.86891 133.44499 31816 ft 441 kts 279°
2026-05-08 06:50 61.87831 133.31639 31817 ft 441 kts 278°
2026-05-08 06:51 61.88757 133.18805 31816 ft 441 kts 278°
2026-05-08 06:51 61.89666 133.06052 31816 ft 441 kts 278°
2026-05-08 06:52 61.90570 132.93175 31816 ft 442 kts 278°
2026-05-08 06:52 61.91467 132.80241 31817 ft 442 kts 278°
2026-05-08 06:53 61.92342 132.67432 31817 ft 442 kts 278°
2026-05-08 06:53 61.93221 132.54520 31816 ft 442 kts 278°
2026-05-08 06:54 61.94103 132.41618 31817 ft 442 kts 278°
2026-05-08 06:54 61.94820 132.30984 31817 ft 442 kts 278°
2026-05-08 06:55 61.95677 132.18085 31817 ft 442 kts 278°
2026-05-08 06:55 61.96518 132.05222 31817 ft 442 kts 278°
2026-05-08 06:56 61.97352 131.92285 31817 ft 442 kts 278°
2026-05-08 06:56 61.98173 131.79350 31817 ft 442 kts 278°
2026-05-08 06:57 61.98982 131.66408 31817 ft 442 kts 278°
2026-05-08 06:57 61.99779 131.53458 31817 ft 442 kts 278°
2026-05-08 06:58 62.00562 131.40530 31817 ft 442 kts 278°
2026-05-08 06:58 62.01056 131.32274 31817 ft 442 kts 277°
2026-05-08 06:59 62.01266 131.28735 31817 ft 442 kts 277°
2026-05-08 06:59 62.01950 131.17105 31817 ft 442 kts 277°
2026-05-08 07:00 62.02697 131.04195 31817 ft 442 kts 277°
2026-05-08 07:00 62.03437 130.91199 31817 ft 442 kts 277°
2026-05-08 07:01 62.04161 130.78261 31817 ft 442 kts 277°
2026-05-08 07:01 62.05009 130.65250 31817 ft 441 kts 279°
2026-05-08 07:02 62.05947 130.52412 31817 ft 441 kts 279°
2026-05-08 07:02 62.06877 130.39490 31817 ft 442 kts 279°
2026-05-08 07:03 62.07794 130.26587 31817 ft 442 kts 278°
2026-05-08 07:03 62.08701 130.13660 31817 ft 442 kts 278°
2026-05-08 07:04 62.09594 130.00738 31817 ft 442 kts 278°
2026-05-08 07:04 62.10479 129.87746 31817 ft 442 kts 278°
2026-05-08 07:05 62.11347 129.74826 31817 ft 442 kts 278°
2026-05-08 07:05 62.12207 129.61842 31817 ft 442 kts 278°
2026-05-08 07:06 62.13053 129.48871 31817 ft 442 kts 278°
2026-05-08 07:06 62.13888 129.35872 31817 ft 442 kts 278°
2026-05-08 07:07 62.14709 129.22902 31817 ft 442 kts 277°
2026-05-08 07:07 62.15519 129.09900 31817 ft 442 kts 277°
2026-05-08 07:08 62.16315 128.96925 31817 ft 441 kts 277°
2026-05-08 07:08 62.17077 128.83983 31817 ft 442 kts 276°
2026-05-08 07:09 62.17453 128.70898 31817 ft 442 kts 273°
2026-05-08 07:09 62.17758 128.57730 31817 ft 442 kts 273°
2026-05-08 07:10 62.18048 128.44719 31817 ft 442 kts 273°
2026-05-08 07:10 62.18330 128.31538 31817 ft 442 kts 272°
2026-05-08 07:11 62.18596 128.18457 31817 ft 442 kts 272°
2026-05-08 07:11 62.18852 128.05312 31817 ft 442 kts 272°
2026-05-08 07:12 62.19093 127.92273 31817 ft 442 kts 272°
2026-05-08 07:12 62.19323 127.79174 31817 ft 442 kts 272°
2026-05-08 07:13 62.19540 127.66058 31817 ft 442 kts 272°
2026-05-08 07:13 62.19747 127.52850 31817 ft 442 kts 272°
2026-05-08 07:14 62.19939 127.39788 31817 ft 442 kts 272°
2026-05-08 07:14 62.20120 127.26636 31817 ft 442 kts 271°
2026-05-08 07:15 62.20288 127.13471 31816 ft 442 kts 272°
2026-05-08 07:15 62.20443 127.00346 31817 ft 444 kts 272°
2026-05-08 07:16 62.20644 126.87192 31817 ft 445 kts 274°
2026-05-08 07:16 62.21042 126.73981 31816 ft 444 kts 274°
2026-05-08 07:17 62.21424 126.60725 31815 ft 444 kts 274°
2026-05-08 07:17 62.21788 126.47632 31815 ft 444 kts 274°
2026-05-08 07:18 62.22144 126.34405 31816 ft 444 kts 273°
2026-05-08 07:18 62.22487 126.21209 31816 ft 444 kts 273°
2026-05-08 07:19 62.22818 126.07951 31817 ft 444 kts 273°
2026-05-08 07:19 62.23134 125.94824 31817 ft 444 kts 273°
2026-05-08 07:20 62.23439 125.81591 31816 ft 444 kts 273°
2026-05-08 07:20 62.23731 125.68401 31816 ft 444 kts 273°
2026-05-08 07:21 62.24011 125.55177 31817 ft 444 kts 273°
2026-05-08 07:21 62.24278 125.42003 31817 ft 444 kts 273°
2026-05-08 07:22 62.24534 125.28721 31817 ft 444 kts 272°
2026-05-08 07:22 62.24777 125.15479 31817 ft 444 kts 272°
2026-05-08 07:23 62.25006 125.02257 31817 ft 444 kts 272°
2026-05-08 07:23 62.25223 124.89017 31815 ft 447 kts 273°
2026-05-08 07:24 62.25428 124.75684 31816 ft 452 kts 272°
2026-05-08 07:24 62.25623 124.62258 31816 ft 452 kts 273°
2026-05-08 07:25 62.25806 124.48731 31814 ft 451 kts 273°
2026-05-08 07:26 62.26053 124.28669 31815 ft 451 kts 272°
2026-05-08 07:26 62.26202 124.15256 31816 ft 451 kts 272°
2026-05-08 07:27 62.26338 124.01814 31815 ft 451 kts 272°
2026-05-08 07:27 62.26462 123.88312 31815 ft 451 kts 272°
2026-05-08 07:28 62.26572 123.74913 31815 ft 451 kts 272°
2026-05-08 07:28 62.26673 123.61529 31815 ft 451 kts 272°
2026-05-08 07:29 62.26761 123.48068 31816 ft 451 kts 272°
2026-05-08 07:29 62.26836 123.34602 31816 ft 451 kts 271°
2026-05-08 07:30 62.26898 123.21159 31816 ft 451 kts 271°
2026-05-08 07:30 62.26947 123.07722 31816 ft 451 kts 271°
2026-05-08 07:31 62.26982 122.94224 31815 ft 455 kts 271°
2026-05-08 07:31 62.27005 122.80669 31816 ft 458 kts 271°
2026-05-08 07:32 62.27014 122.67065 31815 ft 457 kts 271°
2026-05-08 07:32 62.27011 122.53444 31814 ft 457 kts 271°
2026-05-08 07:33 62.26995 122.39786 31814 ft 457 kts 271°
2026-05-08 07:33 62.26964 122.26190 31815 ft 457 kts 270°
2026-05-08 07:34 62.26920 122.12599 31815 ft 457 kts 270°
2026-05-08 07:34 62.26864 121.98962 31815 ft 457 kts 270°
2026-05-08 07:35 62.26793 121.85339 31789 ft 457 kts 270°
2026-05-08 07:35 62.26710 121.71721 31705 ft 457 kts 270°
2026-05-08 07:36 62.26614 121.58136 31681 ft 458 kts 270°
2026-05-08 07:36 62.26504 121.44554 31686 ft 458 kts 270°
2026-05-08 07:37 62.26380 121.30894 31686 ft 458 kts 269°
2026-05-08 07:37 62.26244 121.17251 31686 ft 458 kts 269°
2026-05-08 07:38 62.26093 121.03598 31686 ft 459 kts 269°
2026-05-08 07:38 62.25928 120.89934 31686 ft 460 kts 269°
2026-05-08 07:39 62.25750 120.76202 31686 ft 460 kts 269°
2026-05-08 07:39 62.25559 120.62511 31685 ft 460 kts 269°
2026-05-08 07:40 62.25354 120.48857 31685 ft 460 kts 269°
2026-05-08 07:40 62.25136 120.35202 31686 ft 460 kts 269°
2026-05-08 07:41 62.24902 120.21424 31685 ft 460 kts 268°
2026-05-08 07:41 62.24656 120.07780 31686 ft 460 kts 268°
2026-05-08 07:42 62.24397 119.94073 31685 ft 460 kts 268°
2026-05-08 07:42 62.24125 119.80400 31686 ft 460 kts 268°
2026-05-08 07:43 62.23840 119.66766 31686 ft 460 kts 268°
2026-05-08 07:43 62.23543 119.53142 31686 ft 460 kts 268°
2026-05-08 07:44 62.23231 119.39460 31686 ft 460 kts 268°
2026-05-08 07:44 62.22904 119.25772 31686 ft 460 kts 268°
2026-05-08 07:45 62.22570 119.12122 31686 ft 460 kts 268°
2026-05-08 07:45 62.22245 118.98439 31686 ft 460 kts 268°
2026-05-08 07:46 62.21903 118.84727 31686 ft 462 kts 268°
2026-05-08 07:46 62.21546 118.70992 31686 ft 463 kts 268°
2026-05-08 07:47 62.21176 118.57283 31686 ft 463 kts 268°
2026-05-08 07:47 62.20793 118.43585 31685 ft 463 kts 268°
2026-05-08 07:48 62.20395 118.29858 31685 ft 463 kts 267°
2026-05-08 07:48 62.19981 118.16062 31685 ft 463 kts 267°
2026-05-08 07:49 62.19558 118.02405 31686 ft 463 kts 267°
2026-05-08 07:49 62.19118 117.88644 31685 ft 463 kts 267°
2026-05-08 07:50 62.18666 117.74931 31685 ft 463 kts 267°
2026-05-08 07:50 62.18131 117.61223 31739 ft 464 kts 266°
2026-05-08 07:51 62.17479 117.47521 31857 ft 468 kts 266°
2026-05-08 07:51 62.16803 117.33601 31972 ft 471 kts 265°
2026-05-08 07:52 62.16111 117.19647 32088 ft 474 kts 265°
2026-05-08 07:52 62.15402 117.05652 32267 ft 474 kts 265°
2026-05-08 07:53 62.14673 116.91621 32357 ft 477 kts 265°
2026-05-08 07:53 62.13929 116.77560 32488 ft 478 kts 265°
2026-05-08 07:54 62.13171 116.63528 32688 ft 477 kts 265°
2026-05-08 07:54 62.12392 116.49414 32878 ft 477 kts 265°
2026-05-08 07:55 62.11604 116.35420 33173 ft 473 kts 265°
2026-05-08 07:55 62.11211 116.28540 33598 ft 465 kts 264°
2026-05-08 07:55 62.10824 116.21804 34078 ft 456 kts 264°
2026-05-08 07:55 62.10442 116.15205 34701 ft 443 kts 264°
2026-05-08 07:56 62.10065 116.08756 35247 ft 432 kts 264°
2026-05-08 07:56 62.09692 116.02414 35443 ft 431 kts 264°
2026-05-08 07:56 62.09319 115.96148 35506 ft 432 kts 264°
2026-05-08 07:57 62.08548 115.83373 35621 ft 436 kts 264°
2026-05-08 07:57 62.07757 115.70467 35724 ft 439 kts 264°
2026-05-08 07:58 62.06955 115.57574 35823 ft 442 kts 264°
2026-05-08 07:58 62.06141 115.44571 35919 ft 445 kts 264°
2026-05-08 07:59 62.05305 115.31416 36007 ft 448 kts 264°
2026-05-08 07:59 62.04456 115.18268 36083 ft 451 kts 264°
2026-05-08 08:00 62.03581 115.04939 35954 ft 458 kts 264°
2026-05-08 08:00 62.03136 114.98243 35244 ft 469 kts 264°
2026-05-08 08:00 62.02674 114.91369 34328 ft 477 kts 264°
2026-05-08 08:00 62.02202 114.84384 33728 ft 476 kts 264°
2026-05-08 08:01 62.01728 114.77429 33209 ft 474 kts 264°
2026-05-08 08:01 62.01250 114.70441 32640 ft 474 kts 264°
2026-05-08 08:01 62.00776 114.63570 32045 ft 473 kts 264°
2026-05-08 08:01 62.00296 114.56663 31415 ft 474 kts 264°
2026-05-08 08:02 61.99813 114.49783 30790 ft 474 kts 264°
2026-05-08 08:02 61.99324 114.42853 30169 ft 474 kts 264°
2026-05-08 08:02 61.98831 114.35921 29782 ft 475 kts 264°
2026-05-08 08:02 61.98331 114.28946 29664 ft 476 kts 263°
2026-05-08 08:03 61.97833 114.22059 29667 ft 479 kts 263°
2026-05-08 08:03 61.96812 114.08120 29671 ft 478 kts 263°
2026-05-08 08:04 61.95775 113.94144 29671 ft 477 kts 263°
2026-05-08 08:04 61.94733 113.80340 29671 ft 477 kts 263°
2026-05-08 08:05 61.93671 113.66441 29671 ft 477 kts 263°
2026-05-08 08:05 61.92599 113.52585 29671 ft 477 kts 263°
2026-05-08 08:06 61.91516 113.38787 29672 ft 477 kts 263°
2026-05-08 08:06 61.90412 113.24906 29671 ft 477 kts 262°
2026-05-08 08:07 61.89294 113.11037 29669 ft 477 kts 262°
2026-05-08 08:07 61.88163 112.97178 29669 ft 477 kts 263°
2026-05-08 08:08 61.87019 112.83353 29660 ft 478 kts 263°
2026-05-08 08:08 61.85857 112.69486 29657 ft 478 kts 263°
2026-05-08 08:09 61.84688 112.55706 29664 ft 479 kts 263°
2026-05-08 08:09 61.83498 112.41859 29671 ft 480 kts 263°
2026-05-08 08:10 61.82290 112.27967 29675 ft 480 kts 262°
2026-05-08 08:10 61.81070 112.14149 29677 ft 480 kts 262°
2026-05-08 08:11 61.79534 112.00403 29679 ft 482 kts 259°
2026-05-08 08:11 61.77923 111.86667 29674 ft 484 kts 259°
2026-05-08 08:12 61.76288 111.72851 29669 ft 490 kts 259°
2026-05-08 08:12 61.74619 111.58889 29669 ft 492 kts 259°
2026-05-08 08:13 61.72928 111.44855 29668 ft 492 kts 259°
2026-05-08 08:13 61.71238 111.30949 29667 ft 491 kts 258°
2026-05-08 08:14 61.69543 111.17135 29670 ft 484 kts 258°